TimeCDT,TemperatureF,Dew PointF,Humidity,Sea Level PressureIn,VisibilityMPH,Wind Direction,Wind SpeedMPH,Gust SpeedMPH,PrecipitationIn,Events,Conditions,WindDirDegrees,DateUTC
12:15 AM,59.0,53.6,82,30.14,10.0,NE,3.5,-,N/A,,Overcast,40,2013-08-03 05:15:00
12:35 AM,60.8,53.6,77,30.15,10.0,NNE,3.5,-,N/A,,Overcast,30,2013-08-03 05:35:00
12:55 AM,60.8,53.6,77,30.16,10.0,ENE,4.6,-,N/A,,Overcast,60,2013-08-03 05:55:00
1:15 AM,60.8,53.6,77,30.16,10.0,ENE,4.6,-,N/A,,Overcast,60,2013-08-03 06:15:00
1:35 AM,60.8,51.8,72,30.17,10.0,ENE,5.8,-,N/A,,Overcast,60,2013-08-03 06:35:00
1:55 AM,60.8,51.8,72,30.16,10.0,ENE,6.9,-,N/A,,Overcast,60,2013-08-03 06:55:00
2:15 AM,59.0,51.8,77,30.15,10.0,East,6.9,-,N/A,,Mostly Cloudy,80,2013-08-03 07:15:00
2:35 AM,57.2,51.8,82,30.16,10.0,ENE,4.6,-,N/A,,Mostly Cloudy,70,2013-08-03 07:35:00
2:55 AM,59.0,51.8,77,30.17,10.0,NE,5.8,-,N/A,,Overcast,40,2013-08-03 07:55:00
3:15 AM,59.0,51.8,77,30.16,10.0,East,4.6,-,N/A,,Overcast,90,2013-08-03 08:15:00
3:35 AM,57.2,51.8,82,30.16,10.0,East,4.6,-,N/A,,Mostly Cloudy,80,2013-08-03 08:35:00
3:55 AM,57.2,50.0,77,30.16,10.0,East,6.9,-,N/A,,Mostly Cloudy,100,2013-08-03 08:55:00
4:15 AM,55.4,50.0,82,30.16,10.0,ENE,4.6,-,N/A,,Overcast,70,2013-08-03 09:15:00
4:35 AM,57.2,51.8,82,30.16,10.0,East,4.6,-,N/A,,Overcast,90,2013-08-03 09:35:00
4:55 AM,57.2,50.0,77,30.14,10.0,East,6.9,-,N/A,,Scattered Clouds,80,2013-08-03 09:55:00
5:15 AM,55.4,50.0,82,30.15,10.0,NE,5.8,-,N/A,,Mostly Cloudy,50,2013-08-03 10:15:00
5:35 AM,55.4,50.0,82,30.16,10.0,NE,5.8,-,N/A,,Overcast,50,2013-08-03 10:35:00
5:55 AM,55.4,50.0,82,30.16,10.0,NE,5.8,-,N/A,,Overcast,40,2013-08-03 10:55:00
6:15 AM,55.4,51.8,88,30.16,10.0,ENE,5.8,-,N/A,,Overcast,70,2013-08-03 11:15:00
6:35 AM,55.4,51.8,88,30.17,10.0,ENE,3.5,-,N/A,,Overcast,60,2013-08-03 11:35:00
6:55 AM,55.4,51.8,88,30.18,10.0,ENE,3.5,-,N/A,,Overcast,70,2013-08-03 11:55:00
7:15 AM,57.2,51.8,82,30.17,10.0,Calm,Calm,-,N/A,,Overcast,0,2013-08-03 12:15:00
7:35 AM,55.4,51.8,88,30.18,10.0,Calm,Calm,-,N/A,,Mostly Cloudy,0,2013-08-03 12:35:00
7:55 AM,57.2,51.8,82,30.19,10.0,ENE,4.6,-,N/A,,Mostly Cloudy,60,2013-08-03 12:55:00
8:15 AM,57.2,51.8,82,30.20,10.0,ENE,4.6,-,N/A,,Overcast,60,2013-08-03 13:15:00
8:35 AM,59.0,51.8,77,30.20,10.0,East,3.5,-,N/A,,Overcast,80,2013-08-03 13:35:00
8:55 AM,59.0,51.8,77,30.20,10.0,ENE,6.9,-,N/A,,Overcast,70,2013-08-03 13:55:00
9:15 AM,60.8,51.8,72,30.20,10.0,East,8.1,-,N/A,,Overcast,90,2013-08-03 14:15:00
9:35 AM,62.6,51.8,68,30.21,10.0,East,6.9,-,N/A,,Overcast,80,2013-08-03 14:35:00
9:55 AM,62.6,51.8,68,30.22,10.0,East,6.9,-,N/A,,Overcast,90,2013-08-03 14:55:00
10:15 AM,62.6,53.6,72,30.22,10.0,ENE,9.2,-,N/A,,Overcast,60,2013-08-03 15:15:00
10:35 AM,62.6,53.6,72,30.22,10.0,East,9.2,-,N/A,,Overcast,90,2013-08-03 15:35:00
10:55 AM,62.6,53.6,72,30.22,10.0,East,11.5,-,N/A,,Overcast,100,2013-08-03 15:55:00
11:15 AM,64.4,53.6,68,30.22,10.0,East,9.2,-,N/A,,Overcast,100,2013-08-03 16:15:00
11:35 AM,64.4,53.6,68,30.22,10.0,East,9.2,-,N/A,,Overcast,90,2013-08-03 16:35:00
11:55 AM,66.2,55.4,68,30.23,10.0,ENE,11.5,16.1,N/A,,Mostly Cloudy,70,2013-08-03 16:55:00
12:15 PM,66.2,53.6,64,30.23,10.0,East,11.5,16.1,N/A,,Scattered Clouds,80,2013-08-03 17:15:00
12:35 PM,68.0,53.6,60,30.23,10.0,East,9.2,-,N/A,,Partly Cloudy,100,2013-08-03 17:35:00
12:55 PM,68.0,53.6,60,30.22,10.0,East,9.2,16.1,N/A,,Clear,90,2013-08-03 17:55:00
1:15 PM,69.8,55.4,60,30.22,10.0,ESE,12.7,19.6,N/A,,Clear,120,2013-08-03 18:15:00
1:35 PM,71.6,55.4,57,30.22,10.0,ESE,10.4,-,N/A,,Clear,110,2013-08-03 18:35:00
1:55 PM,71.6,55.4,57,30.22,10.0,East,11.5,17.3,N/A,,Clear,80,2013-08-03 18:55:00
2:15 PM,73.4,55.4,53,30.21,10.0,ESE,10.4,21.9,N/A,,Clear,110,2013-08-03 19:15:00
2:35 PM,73.4,55.4,53,30.21,10.0,ENE,10.4,-,N/A,,Clear,70,2013-08-03 19:35:00
2:55 PM,73.4,55.4,53,30.20,10.0,ESE,10.4,-,N/A,,Scattered Clouds,110,2013-08-03 19:55:00
3:15 PM,75.2,55.4,50,30.20,10.0,ENE,11.5,-,N/A,,Mostly Cloudy,70,2013-08-03 20:15:00
3:35 PM,75.2,55.4,50,30.20,10.0,SE,10.4,-,N/A,,Mostly Cloudy,130,2013-08-03 20:35:00
3:55 PM,75.2,55.4,50,30.19,10.0,East,8.1,16.1,N/A,,Mostly Cloudy,100,2013-08-03 20:55:00
4:15 PM,75.2,55.4,50,30.19,10.0,ESE,11.5,17.3,N/A,,Mostly Cloudy,120,2013-08-03 21:15:00
4:35 PM,75.2,53.6,47,30.18,10.0,SE,13.8,17.3,N/A,,Scattered Clouds,140,2013-08-03 21:35:00
4:55 PM,75.2,53.6,47,30.18,10.0,SE,12.7,18.4,N/A,,Scattered Clouds,130,2013-08-03 21:55:00
5:15 PM,77.0,53.6,44,30.18,10.0,ESE,11.5,16.1,N/A,,Partly Cloudy,120,2013-08-03 22:15:00
5:35 PM,75.2,53.6,47,30.17,10.0,ESE,9.2,-,N/A,,Scattered Clouds,110,2013-08-03 22:35:00
5:55 PM,75.2,53.6,47,30.16,10.0,ESE,12.7,18.4,N/A,,Scattered Clouds,120,2013-08-03 22:55:00
6:15 PM,75.2,53.6,47,30.16,10.0,ESE,11.5,17.3,N/A,,Scattered Clouds,110,2013-08-03 23:15:00
6:35 PM,75.2,53.6,47,30.16,10.0,ESE,11.5,17.3,N/A,,Mostly Cloudy,110,2013-08-03 23:35:00
6:55 PM,75.2,53.6,47,30.15,10.0,ESE,11.5,19.6,N/A,,Scattered Clouds,110,2013-08-03 23:55:00
7:15 PM,75.2,53.6,47,30.14,10.0,ESE,13.8,19.6,N/A,,Clear,110,2013-08-04 00:15:00
7:35 PM,73.4,53.6,50,30.14,10.0,ESE,10.4,17.3,N/A,,Clear,110,2013-08-04 00:35:00
7:55 PM,73.4,53.6,50,30.14,10.0,East,10.4,18.4,N/A,,Clear,90,2013-08-04 00:55:00
8:35 PM,69.8,53.6,56,30.13,10.0,East,10.4,-,N/A,,Clear,100,2013-08-04 01:35:00
8:55 PM,68.0,53.6,60,30.14,10.0,East,8.1,-,N/A,,Clear,90,2013-08-04 01:55:00
9:15 PM,66.2,53.6,64,30.14,10.0,East,8.1,-,N/A,,Clear,100,2013-08-04 02:15:00
9:35 PM,66.2,53.6,64,30.14,10.0,East,11.5,-,N/A,,Clear,100,2013-08-04 02:35:00
9:55 PM,66.2,53.6,64,30.14,10.0,ESE,6.9,-,N/A,,Clear,110,2013-08-04 02:55:00
10:15 PM,66.2,53.6,64,30.14,10.0,ESE,12.7,18.4,N/A,,Clear,110,2013-08-04 03:15:00
10:35 PM,64.4,51.8,64,30.14,10.0,ESE,12.7,18.4,N/A,,Clear,120,2013-08-04 03:35:00
10:55 PM,64.4,53.6,68,30.16,10.0,ESE,9.2,16.1,N/A,,Clear,110,2013-08-04 03:55:00
11:15 PM,64.4,51.8,64,30.17,10.0,ESE,9.2,-,N/A,,Clear,120,2013-08-04 04:15:00
11:35 PM,64.4,51.8,64,30.17,10.0,ESE,11.5,18.4,N/A,,Clear,120,2013-08-04 04:35:00
11:55 PM,64.4,51.8,64,30.18,10.0,ESE,9.2,-,N/A,,Scattered Clouds,120,2013-08-04 04:55:00